User: anonymous   Login
Location: Unspecified
(0.0000°N, 0.0000°E)
Time: 00:15:20
(UTC+00:00)
Language:

COSMOS 2454 - Orbit

View from above orbital plane
View from above orbital plane
View from above satellite
View from above satellite

Ground track
Ground track

The orbit data is extracted from the following two-line orbital elements,

1 35635U 09039A   17326.52071272 +.00000030 +00000-0 +11421-4 0  9994
2 35635 082.9582 238.5714 0017972 205.9203 154.1064 13.89619263423047
Epoch (UTC): 22 November 2017 12:29:49
Eccentricity: 0.0017972
inclination: 82.9582°
perigee height: 917 km
apogee height: 943 km
right ascension of ascending node: 238.5714°
argument of perigee: 205.9203°
revolutions per day: 13.89619263
mean anomaly at epoch: 154.1064°
orbit number at epoch: 42304

The dashed part of the orbit path shows where the satellite is in the earth's shadow,  

DLR